Terminal Aerodrome Forecast
Issued by NWS

Home | Current Version | Previous Version | Text Only | Print | Product List | Glossary On
Versions: 1 2 3 4 5 6 7 8 9 10 11 12 13 14 15 16 17 18 19 20 21 22 23 24 25 26 27 28 29 30 31 32 33 34 35 36 37 38 39 40 41 42 43 44 45 46 47 48 49 50
000
FTUS43 KMKX 260700 AAA
TAFENW
TAF AMD
KENW 260700Z 2607/2706 32006KT P6SM BKN027
     FM261100 VRB03KT P6SM SCT030
     FM261300 00000KT P6SM SCT030 BKN090
     FM261800 16008KT 3SM -SN OVC030
     FM262000 18007KT 2SM -SN OVC020
     FM262200 18007KT 3SM -SN OVC010
     FM270300 19006KT 3SM -FZDZ BR OVC010=

USA.gov is the U.S. government's official web portal to all federal, state and local government web resources and services.